EW8784 Weather Reports


time (UTC)temp
C
wind
direction
speed
KPH
gust
KPH
rain 1hr
cm
rain 24hr
cm
rain mn
cm
humidity
%
barometer
mb
20260504081507 21 120 8.0 20.9 0.00 0.05 0.05 45 1000.5
20260504050008 25 359 9.7 25.7 0.00 0.05 0.05 46 999.2
20260504044505 25 336 9.7 30.6 0.00 0.05 0.05 44 999.1
20260504043007 26 339 4.8 24.1 0.00 0.05 0.05 46 999.2
20260504041505 26 146 4.8 17.7 0.00 0.05 0.05 45 999.5
20260504040008 26 222 6.4 16.1 0.00 0.05 0.05 47 999.9
20260504034505 25 298 4.8 12.9 0.00 0.05 0.05 47 1000.0
20260504033007 25 298 8.0 19.3 0.00 0.05 0.05 48 1000.2
20260504031505 25 338 0.0 0.0 0.00 0.05 0.05 50 1000.1
20260504030008 25 51 1.6 6.4 0.00 0.05 0.05 60 1000.6
20260504024505 24 208 0.0 3.2 0.00 0.05 0.05 80 1000.8
20260504021510 23 359 1.6 6.4 0.00 0.05 0.05 82 1000.9
20260504020007 25 359 3.2 8.0 0.00 0.05 0.05 56 1000.9
20260504013005 25 138 3.2 14.5 0.00 0.05 0.05 89 1001.1
20260504011508 24 359 3.2 9.7 0.00 0.05 0.05 97 1001.1
20260504010005 24 322 1.6 9.7 0.00 0.05 0.05 100 1001.0
20260504004503 24 278 3.2 12.9 0.00 0.05 0.05 100 1001.2
20260504001507 22 158 3.2 14.5 0.00 0.05 0.05 100 1001.3
20260504000004 21 124 8.0 19.3 0.00 0.05 0.05 100 1001.4
20260503234507 21 93 8.0 24.1 0.00 0.05 0.05 100 1001.2
20260503233003 20 162 8.0 32.2 0.00 0.05 0.05 100 1001.1
20260503230004 20 359 3.2 14.5 0.00 0.05 0.05 100 1001.9
20260503224507 21 197 11.3 27.4 0.00 0.05 0.05 100 1001.8
20260503223003 21 166 4.8 14.5 0.00 0.05 0.05 100 1001.6
20260503221506 21 76 4.8 16.1 0.00 0.05 0.05 100 1001.6
20260503214506 20 298 9.7 19.3 0.00 0.05 0.05 100 1001.5
20260503213002 20 288 9.7 32.2 0.00 0.05 0.05 100 1001.3
20260503211506 20 124 11.3 24.1 0.00 0.05 0.05 100 1001.3
20260503210003 20 65 4.8 19.3 0.00 0.00 0.00 100 1001.4
20260503203036 20 239 14.5 48.3 0.00 0.00 0.00 100 1001.6
20260503201506 20 329 4.8 16.1 0.00 0.00 0.00 100 1001.6
20260503200004 20 14 3.2 14.5 0.00 0.00 0.00 100 1001.5
20260503194505 20 359 11.3 29.0 0.00 0.00 0.00 100 1001.6
20260503193003 20 132 24.1 61.2 0.00 0.00 0.00 100 1001.7
20260503191505 20 359 24.1 54.7 0.00 0.00 0.00 100 1001.5
20260503190008 20 221 17.7 54.7 0.00 0.00 0.00 100 1001.8
20260503184505 20 263 19.3 43.5 0.00 0.00 0.00 100 1002.3
20260503181505 20 359 17.7 40.2 0.00 0.00 0.00 100 1003.0
20260503173008 19 166 12.9 22.5 0.00 0.00 0.00 100 1004.5
20260503171504 18 128 9.7 20.9 0.00 0.00 0.00 100 1005.3